DW0489 Weather Reports


time (UTC)temp
C
wind
direction
speed
KPH
gust
KPH
rain 1hr
cm
rain 24hr
cm
rain mn
cm
humidity
%
barometer
mb
20260504081515 4 238 4.8 8.0 0.00 0.00 0.00 76 1012.0
20260504050020 4 284 0.0 0.0 0.00 0.00 0.00 77 1011.6
20260504044533 4 284 0.0 0.0 0.00 0.00 0.00 76 1011.5
20260504043018 5 273 0.0 0.0 0.00 0.00 0.00 74 1011.4
20260504041522 5 273 0.0 0.0 0.00 0.00 0.00 73 1011.4
20260504040022 5 264 0.0 0.0 0.00 0.00 0.00 73 1011.4
20260504034531 5 260 0.0 0.0 0.00 0.00 0.00 72 1011.3
20260504033031 5 260 0.0 0.0 0.00 0.00 0.00 72 1011.3
20260504031520 5 257 0.0 0.0 0.00 0.00 0.00 69 1011.3
20260504030017 5 247 0.0 0.0 0.00 0.00 0.00 66 1011.3
20260504024515 6 245 0.0 3.2 0.00 0.00 0.00 65 1011.2
20260504023024 6 245 0.0 1.6 0.00 0.00 0.00 62 1011.3
20260504021531 6 243 0.0 1.6 0.00 0.00 0.00 61 1011.3
20260504020021 7 243 0.0 1.6 0.00 0.00 0.00 59 1011.3
20260504014521 7 239 0.0 3.2 0.00 0.00 0.00 57 1011.3
20260504013029 8 243 0.0 4.8 0.00 0.00 0.00 55 1011.2
20260504011518 8 239 0.0 3.2 0.00 0.00 0.00 50 1011.1
20260504010023 9 244 1.6 3.2 0.00 0.00 0.00 45 1010.9
20260504004522 10 243 1.6 3.2 0.00 0.00 0.00 44 1010.7
20260504003003 11 245 1.6 4.8 0.00 0.00 0.00 41 1010.5
20260504001503 11 298 0.0 8.0 0.00 0.00 0.00 38 1010.2
20260504000004 11 271 3.2 4.8 0.00 0.00 0.00 37 1010.0
20260503234503 12 297 1.6 6.4 0.00 0.00 0.00 34 1009.9
20260503233002 12 280 3.2 9.7 0.00 0.00 0.00 36 1009.6
20260503231508 12 309 4.8 9.7 0.00 0.00 0.00 35 1009.5
20260503230004 12 284 3.2 17.7 0.00 0.00 0.00 34 1009.4
20260503224503 13 305 6.4 17.7 0.00 0.00 0.00 33 1009.2
20260503223002 13 305 12.9 19.3 0.00 0.00 0.00 33 1009.1
20260503221503 13 288 8.0 27.4 0.00 0.00 0.00 35 1009.1
20260503220008 13 339 6.4 24.1 0.00 0.00 0.00 35 1009.1
20260503214504 13 325 14.5 25.7 0.00 0.00 0.00 33 1009.1
20260503213010 13 331 6.4 14.5 0.00 0.00 0.00 37 1009.1
20260503211514 12 347 11.3 25.7 0.00 0.00 0.00 36 1009.1
20260503210005 13 302 6.4 19.3 0.00 0.00 0.00 34 1009.2
20260503204506 13 326 9.7 27.4 0.00 0.00 0.00 38 1009.2
20260503203007 12 284 11.3 22.5 0.00 0.00 0.00 39 1009.2
20260503201523 13 314 6.4 19.3 0.00 0.00 0.00 38 1009.2
20260503200010 12 310 9.7 24.1 0.00 0.00 0.00 40 1009.3
20260503194506 13 354 8.0 25.7 0.00 0.00 0.00 42 1009.3
20260503193010 12 289 11.3 29.0 0.00 0.00 0.00 40 1009.4
20260503191509 12 307 9.7 33.8 0.00 0.00 0.00 43 1009.6
20260503190018 11 298 17.7 29.0 0.00 0.00 0.00 43 1009.6
20260503184510 11 299 4.8 30.6 0.00 0.00 0.00 44 1009.7
20260503183017 11 307 14.5 30.6 0.00 0.00 0.00 41 1009.8
20260503181524 10 345 11.3 29.0 0.00 0.00 0.00 41 1009.8
20260503180012 11 303 12.9 24.1 0.00 0.00 0.00 42 1009.6
20260503174510 10 343 11.3 27.4 0.00 0.00 0.00 42 1009.6
20260503173028 11 247 11.3 30.6 0.00 0.00 0.00 43 1009.7
20260503171512 11 212 19.3 29.0 0.00 0.00 0.00 40 1009.7